Weather Roundup
Issued by NWS Corpus Christi, TX

Home | Current Version | Previous Version | Text Only | Print | Product List | Glossary On
Versions: 1 2 3 4 5 6 7 8 9 10 11 12 13 14 15 16 17 18 19 20 21 22 23 24 25 26 27 28 29 30 31 32 33 34 35 36 37 38 39 40 41 42 43 44 45 46 47 48 49 50
000
ASUS44 KCRP 301410
HRRCRP

SOUTH TEXAS REGIONAL WEATHER ROUNDUP
NATIONAL WEATHER SERVICE CORPUS CHRISTI TX
900 AM CDT THU JUL 30 2015


TXZ229>244-301500-
...CORPUS CHRISTI AREA OBSERVATIONS...

CITY           SKY/WX    TMP DP  RH WIND       PRES   REMARKS
CORPUS CHRISTI PTSUNNY   82  76  81 CALM      30.07R
NAS CORPUS CHR PTSUNNY   82  75  79 S3        30.06R
ROCKPORT       MOSUNNY   83  78  85 SW3       30.06R HX  93
KINGSVILLE NAS MOSUNNY   79  79 100 SE5       30.06S FOG
ALICE          FOG       77  76  96 CALM      30.07R VSB 1/4
FALFURRIAS     CLOUDY    76  74  96 CALM      30.06S VSB 1/4
$$

...VICTORIA AREA OBSERVATIONS...

CITY           SKY/WX    TMP DP  RH WIND       PRES   REMARKS
VICTORIA       CLOUDY    79  78  97 W10       30.08R
BEEVILLE       FOG       74  74 100 CALM      30.08R VSB 3/4
PLEASANTON     MOSUNNY   79  73  83 E3        30.10R
SAN ANTONIO    MOSUNNY   80  71  74 SW5       30.11R
$$

...LAREDO AREA OBSERVATIONS...

CITY           SKY/WX    TMP DP  RH WIND       PRES   REMARKS
LAREDO         SUNNY     82  75  79 SE9       30.08R
COTULLA        SUNNY     80  73  79 E3        30.08R
DEL RIO        SUNNY     81  69  67 E12       30.09R
MCALLEN        SUNNY     84  77  79 SE9       30.05R HX  94
HEBBRONVILLE     N/A     76  75  97 SE6       30.09R FOG
$$

...OTHER TEXAS OBSERVATIONS...

CITY           SKY/WX    TMP DP  RH WIND       PRES   REMARKS
BROWNSVILLE    SUNNY     81  79  94 SE6       30.05R HX  90
HOUSTON        PTSUNNY   83  75  77 W5        30.06R HX  90
COL. STATION   SUNNY     83  73  72 W8        30.08R
AUSTIN         MOSUNNY   81  71  71 CALM      30.08S
WACO           SUNNY     86  68  54 NW3       30.09R
FORT WORTH     SUNNY     90  66  45 CALM      30.09R HX  92
WICHITA FALLS  SUNNY     83  68  60 S3        30.11R
LUBBOCK        PTSUNNY   75  66  73 N9        30.25R
EL PASO        LGT RAIN  68  66  93 N10       30.27S
$$

...MARINE OBSERVATIONS...

STATION/POSITION TIME  SKY/WX   TEMP    WIND        PRES    VSBY  WAVE   SWELL
                                AIR SEA DIR/SP/G                  HT/PER HT/PER
                 (UTC)          (F)     (DEG/KT/KT) (MB)    (MI)  (FT/S) (FT/S)
PORT ARANSAS     1400            82 83  190/  5/  5 1018.8R
BUOY 90 E PORT A 1350            85 86  290/  4/  6 1018.0R         1/ 6   2/ 6
BUOY 45 SE BAFFI 1350            83 85  200/  6/  6 1017.4R         1/ 5   2/ 5
BUOY 200 E PT IS 1350            86 86  330/  2/  2 1018.2R         1/ 5   2/ 5
BUOY 15 E GALVES 1350            85 86  330/  8/  8 1017.2R         2/ 6   2/ 6
$$


USA.gov is the U.S. government's official web portal to all federal, state and local government web resources and services.